Theta_e
310 313 314 315 316 315 315 314 314 314 312 311 312 312 313 313 313 312 312 312 309 309 310 311 311 311 311 311 311 311 312 311 312 312 312 312 312 313 313 313 313 311 311 313 313 313 311 310 308 307 306 306 306 306 306 305 306 306 307 308 308 308 308 308 309 310 311 312 313 313 313 313 313 312 312 312 312 312 312 312 313 312 311 310 309 308
309 314 315 315 315 314 313 312 312 312 311 311 312 313 313 313 313 312 312 312 309 308 311 311 311 311 311 311 311 311 312 311 312 312 312 312 313 313 314 313 311 311 312 313 313 312 311 310 309 307 306 306 306 306 306 305 305 306 307 308 308 307 307 307 307 308 310 311 312 312 312 312 311 311 311 310 310 311 311 311 311 311 310 309 308 307
312 314 314 314 314 312 310 309 309 310 311 311 312 313 313 313 313 312 312 311 308 308 311 311 310 311 311 311 312 312 312 312 312 312 313 313 314 313 312 311 310 311 313 312 312 311 311 310 309 308 307 305 304 304 304 304 304 304 305 306 307 307 306 306 306 307 308 309 310 310 310 310 309 309 309 309 309 309 309 309 309 309 308 308 307 306
315 314 313 313 312 310 310 309 309 310 311 312 312 313 313 313 314 313 311 309 307 308 310 310 310 311 312 312 312 312 312 312 312 312 313 314 313 312 311 311 310 311 312 312 311 310 310 309 308 308 307 305 304 304 303 302 303 303 304 305 306 306 306 306 306 305 306 307 307 308 308 308 307 307 306 307 307 306 306 307 307 307 307 307 307 305
316 313 310 310 310 310 311 311 310 311 312 313 314 313 313 314 314 313 312 311 310 310 310 310 312 313 314 314 314 313 311 311 313 313 312 313 311 311 311 311 311 311 311 311 310 309 309 309 308 307 306 305 304 304 302 301 301 302 303 304 305 305 305 305 305 305 305 305 305 306 306 306 305 305 304 304 305 304 304 304 304 304 304 305 305 305
315 311 308 311 311 310 311 311 312 313 313 314 315 314 313 313 313 313 314 312 312 313 311 311 314 315 314 314 315 315 313 313 315 314 312 311 310 311 312 311 311 311 311 310 309 308 308 308 307 305 304 303 303 301 299 300 300 300 301 302 303 305 305 304 304 304 304 304 304 304 304 304 304 304 304 303 303 303 302 302 302 302 303 303 303 303
313 309 307 311 312 312 312 312 313 313 312 314 315 315 313 312 313 313 313 312 313 314 311 310 314 315 315 314 314 315 314 314 316 315 313 311 310 311 311 310 311 311 310 309 308 307 307 306 305 304 303 301 300 299 298 299 299 300 300 301 302 303 304 303 303 303 303 303 304 303 304 304 304 304 304 303 302 302 301 301 301 301 301 301 301 301
311 309 308 311 312 312 312 312 313 312 312 314 314 314 314 312 314 313 312 312 312 312 311 311 312 314 315 315 314 314 314 315 317 316 313 310 309 310 310 310 310 309 308 307 307 306 305 305 304 303 301 300 299 297 298 298 298 299 300 300 301 302 303 302 302 302 303 303 303 303 303 303 303 304 304 302 301 301 300 300 300 300 300 300 299 299
310 312 312 312 312 312 313 314 314 312 312 314 311 310 311 311 311 311 311 312 311 311 313 313 312 315 317 315 312 312 313 316 316 313 311 309 309 309 309 309 308 307 306 305 305 304 303 303 302 301 300 299 298 297 297 297 298 298 298 299 300 300 301 301 301 302 302 302 303 303 303 303 303 303 303 303 301 301 300 299 299 299 298 298 298 298
310 309 310 312 313 312 313 313 312 313 313 312 309 309 310 310 309 309 310 311 310 312 315 314 313 316 318 316 313 313 313 315 315 311 308 308 309 309 309 309 307 306 305 304 304 303 302 301 300 299 298 297 297 297 296 296 296 297 297 298 298 299 299 300 300 301 301 301 302 303 303 303 303 303 302 302 301 300 300 299 299 298 298 297 297 297
308 305 306 310 312 312 312 309 307 312 313 310 310 311 312 310 309 309 309 310 312 316 317 314 314 316 318 317 315 314 313 312 312 310 309 308 308 309 308 307 305 304 304 303 302 301 301 300 298 298 297 297 296 296 296 295 295 295 295 296 297 297 297 298 299 299 300 301 301 302 302 302 303 303 302 302 301 301 300 299 299 298 297 297 296 296
308 306 308 311 311 310 311 309 306 307 309 309 311 311 312 313 311 311 310 310 315 320 317 312 313 315 317 317 314 313 313 311 310 311 311 310 308 308 307 305 304 302 302 301 300 299 299 298 298 297 297 296 296 295 295 295 295 294 294 295 295 295 296 297 297 298 299 299 300 301 301 301 302 302 302 302 301 301 300 299 299 298 297 297 296 296
312 311 310 310 310 308 310 311 308 306 307 309 310 310 314 316 317 319 317 315 318 319 312 308 311 314 315 316 313 314 315 312 310 310 310 308 307 307 305 304 302 301 300 299 298 298 297 297 297 297 296 296 295 295 295 294 294 294 294 294 294 294 294 295 295 296 297 297 298 299 299 300 300 300 301 301 301 300 300 299 299 299 298 297 296 296
317 316 310 310 311 308 310 312 312 312 309 309 310 312 316 319 320 323 321 319 320 318 309 306 310 313 314 315 314 314 314 312 308 307 306 306 306 305 303 302 301 300 299 298 297 297 296 296 296 296 296 295 295 294 294 294 294 294 294 294 294 294 293 293 294 294 295 296 296 297 297 298 298 299 299 300 300 300 299 299 299 299 298 298 297 296
319 319 313 314 315 310 309 312 316 316 310 309 311 313 317 319 321 323 323 322 323 321 313 309 313 317 317 315 312 312 313 310 306 304 304 305 305 303 302 301 300 299 298 297 296 296 295 295 296 295 295 295 294 294 294 294 293 293 294 294 294 294 293 293 293 293 294 294 294 295 296 296 297 297 298 298 299 299 299 298 298 298 298 298 297 297
318 319 317 315 312 309 310 314 316 315 312 310 310 312 314 316 318 320 321 322 322 322 318 314 316 317 316 315 313 313 313 308 305 305 304 305 303 302 300 299 298 297 297 296 296 295 295 295 295 294 294 294 294 294 293 293 293 293 293 293 293 293 293 293 292 292 292 293 293 293 294 295 295 295 296 296 297 297 297 297 297 297 298 297 297 297
317 318 318 312 308 308 310 313 313 314 314 310 309 312 314 315 317 317 317 319 318 319 320 319 318 317 317 317 314 312 311 306 305 305 304 304 302 300 299 297 297 296 295 295 295 295 295 295 294 294 293 293 293 293 293 292 292 292 292 292 293 293 293 293 292 292 292 292 292 292 293 293 293 294 294 295 296 296 296 296 296 296 296 297 296 296
318 319 318 314 313 310 307 308 311 313 312 310 311 314 314 313 313 313 315 318 318 319 321 322 321 319 320 319 312 310 311 309 307 305 303 302 300 299 298 296 295 295 295 294 294 294 294 294 294 293 293 293 292 292 292 292 292 292 292 292 292 292 292 292 292 292 292 292 291 291 292 292 292 293 293 293 294 294 295 295 295 295 295 295 296 296
318 319 319 316 315 311 305 307 310 311 311 311 311 312 312 314 314 313 315 317 319 320 321 320 320 319 319 318 315 314 313 311 307 304 301 300 298 298 297 295 294 294 294 294 293 293 294 294 293 293 292 292 292 292 292 291 291 291 291 291 291 291 291 291 291 291 292 292 292 291 291 291 291 292 292 292 293 293 294 294 294 295 295 295 295 295
315 317 320 318 315 310 307 309 311 312 311 309 309 309 309 312 314 314 315 316 318 320 320 320 320 319 318 318 316 315 312 310 308 304 300 298 296 296 295 294 294 293 293 293 293 292 293 293 292 292 292 291 291 291 291 291 291 291 291 290 290 291 291 291 290 290 290 291 291 291 291 291 291 291 291 291 292 292 293 293 293 294 294 294 294 294
313 315 317 318 315 312 310 312 313 313 312 309 309 310 309 310 311 312 313 314 317 318 320 321 321 320 319 317 314 311 309 308 306 302 299 296 295 294 293 293 293 293 292 292 292 292 292 292 292 291 291 291 291 291 291 291 291 290 290 290 290 290 290 290 290 290 290 290 290 290 290 291 291 291 291 290 290 291 292 292 292 292 293 293 293 293
313 315 316 316 315 314 314 314 313 313 314 312 311 311 311 311 312 313 315 316 316 316 318 320 320 321 320 315 311 308 305 304 302 300 297 295 294 294 293 293 292 292 292 291 291 291 291 292 291 291 291 291 291 291 290 291 290 290 290 290 290 290 290 289 289 289 290 290 290 289 289 289 289 290 291 291 290 290 290 291 291 291 291 292 292 292
311 312 314 315 314 315 315 315 313 312 312 313 313 313 313 313 312 315 317 317 317 316 317 318 319 321 317 309 305 303 301 300 299 298 296 294 294 293 293 292 292 292 291 291 291 291 291 291 291 291 291 291 291 290 290 290 290 290 289 289 289 289 289 289 289 289 289 289 289 289 289 289 288 289 289 290 290 290 290 290 290 290 290 291 291 291
310 310 313 314 314 314 314 314 313 311 311 314 315 314 313 313 314 316 316 316 317 317 318 318 318 321 315 304 300 300 297 297 297 296 296 295 293 293 292 292 292 291 291 291 291 291 291 291 291 291 291 291 291 290 290 290 290 289 289 288 289 289 289 289 288 288 288 288 288 288 288 288 288 288 288 289 289 290 290 290 290 289 290 290 290 290
313 313 315 316 316 316 315 315 315 312 312 313 313 313 313 314 315 315 314 312 313 315 316 316 317 319 314 304 300 299 297 296 295 294 295 294 293 293 292 292 292 292 291 291 291 291 291 291 291 291 291 291 291 290 290 290 289 289 288 288 288 288 288 288 288 288 288 288 288 287 287 287 287 287 287 287 288 289 289 290 290 290 289 289 290 290
312 313 314 315 317 317 316 316 315 313 312 311 311 312 313 312 313 314 314 314 315 315 314 315 315 315 312 307 305 304 301 298 295 294 293 293 293 293 292 292 292 292 291 291 291 291 291 291 291 291 291 291 290 290 290 290 289 289 288 287 287 287 287 287 287 287 287 288 288 288 287 287 286 286 286 286 287 287 288 289 289 290 290 289 289 289
310 311 313 314 314 315 314 314 314 313 312 312 313 313 313 312 312 311 312 314 315 315 314 314 315 315 313 312 311 311 309 304 298 295 293 293 292 292 292 292 291 291 291 291 291 291 291 291 291 291 291 291 290 290 290 289 289 289 288 287 287 287 287 287 287 287 288 288 288 288 288 287 286 285 285 285 285 286 287 287 288 289 290 290 290 289
309 309 311 312 312 312 312 312 312 311 311 311 311 311 311 312 311 311 311 311 311 312 312 312 312 313 312 312 312 312 311 306 299 295 294 293 292 292 292 292 291 291 291 291 291 291 291 290 291 291 291 290 290 290 290 289 289 288 288 287 287 286 286 287 287 287 287 288 288 288 288 287 286 285 285 284 285 285 286 286 287 287 288 289 290 290
308 308 308 309 309 309 308 309 309 308 308 307 307 308 308 308 309 309 309 308 309 310 309 308 309 310 309 309 309 307 304 301 297 294 294 293 292 292 292 292 291 291 291 291 291 291 291 291 291 291 291 290 290 290 290 289 289 288 287 287 286 286 286 287 287 287 287 287 287 287 287 287 286 285 284 284 284 284 285 285 285 286 286 287 288 289
306 306 306 306 305 306 306 306 306 305 305 304 304 305 305 305 306 306 306 306 306 306 306 305 306 306 306 305 304 301 298 297 295 293 293 293 293 293 292 292 292 291 291 291 291 291 291 291 291 291 291 290 290 290 290 289 289 288 287 287 286 285 285 285 286 286 286 286 287 287 286 286 286 285 284 284 284 284 284 285 285 285 285 285 286 287
304 305 304 303 303 304 303 303 303 303 303 302 302 302 302 302 302 302 303 303 303 303 303 303 304 304 303 301 298 296 295 295 293 292 292 293 293 293 293 293 292 291 291 291 291 291 291 291 291 291 291 290 290 290 289 289 289 288 287 287 286 285 284 285 285 286 285 286 286 286 286 286 286 285 284 284 283 283 284 285 285 284 284 284 284 285
302 302 302 302 302 303 302 301 301 300 300 300 300 299 299 300 300 301 301 302 303 303 303 302 303 303 300 297 295 294 293 292 292 292 292 292 293 293 293 293 293 292 291 290 290 291 290 290 291 291 291 290 290 290 289 289 288 287 287 286 285 284 284 284 284 285 284 284 285 285 285 285 285 285 285 284 283 283 284 285 285 284 284 284 284 284
301 301 301 301 301 301 301 300 299 298 298 298 299 299 299 299 299 300 300 301 301 301 301 300 300 299 297 295 295 295 293 292 291 292 292 292 292 292 293 292 293 293 292 291 290 290 290 291 291 291 291 290 290 290 289 289 288 287 287 286 284 284 283 283 284 284 284 284 284 285 284 284 284 284 284 283 282 283 285 286 285 285 284 283 283 283
300 300 299 300 300 300 300 298 297 297 298 298 299 299 298 297 298 298 297 298 298 299 299 298 297 296 295 295 294 293 292 292 291 291 291 291 292 292 292 292 292 293 292 291 291 290 291 291 291 291 291 290 290 289 289 288 288 287 286 285 284 283 283 283 283 283 283 283 284 284 284 283 283 282 282 281 281 282 285 286 285 285 284 284 283 283
298 298 298 298 299 298 297 296 296 298 298 296 296 297 297 296 297 297 296 296 297 298 297 297 295 295 295 293 292 291 291 291 292 291 291 291 292 292 292 292 292 292 292 292 291 290 291 291 291 291 290 290 290 289 289 288 287 287 286 285 284 283 283 282 282 282 282 283 283 283 283 282 282 281 280 280 280 282 285 286 286 285 284 284 284 283
296 297 297 297 297 297 296 297 297 297 295 293 294 295 295 295 296 296 296 297 297 297 297 297 295 294 294 292 291 292 292 292 292 292 292 292 292 292 292 292 292 292 292 292 291 291 291 291 291 290 290 290 290 289 288 288 287 286 285 284 284 283 282 282 282 282 282 282 282 282 282 281 281 280 279 278 278 280 283 285 285 284 283 283 283 284
296 296 296 295 296 296 295 295 296 295 294 294 294 294 295 295 295 296 296 297 296 296 296 297 295 293 292 292 293 293 293 292 292 292 292 293 294 294 293 292 292 293 292 292 291 291 291 290 290 290 290 289 289 289 288 287 286 286 285 284 283 283 282 281 281 281 281 281 281 281 281 280 279 278 278 277 277 279 282 284 283 281 281 282 282 283
294 296 296 295 296 295 294 295 295 295 294 294 293 294 294 293 293 295 296 296 296 296 295 294 294 294 293 293 294 294 292 291 291 291 291 291 292 293 293 292 293 293 293 292 292 291 291 290 290 289 289 289 289 288 287 286 285 284 284 283 283 282 281 281 281 280 280 280 280 280 279 279 278 277 277 276 276 278 281 281 280 279 279 280 280 281
293 294 295 295 295 295 295 295 296 295 295 295 294 294 293 292 292 294 295 295 295 294 294 292 292 293 293 293 293 293 292 290 290 290 291 290 290 290 291 291 292 292 292 292 291 291 291 290 290 289 288 288 287 287 286 285 284 283 282 282 282 281 281 280 280 280 279 279 279 279 278 278 277 277 276 275 275 277 279 278 277 277 277 277 278 279
292 293 294 295 295 295 295 295 295 294 294 294 294 293 292 292 292 294 295 294 292 292 292 292 292 293 292 291 292 292 291 290 289 290 290 290 290 289 289 289 290 291 292 292 291 290 289 289 288 288 287 287 286 286 284 283 282 281 281 281 281 280 280 280 279 279 279 278 278 278 277 277 276 276 275 275 275 276 276 276 275 275 275 275 276 277
291 291 293 294 294 294 294 295 295 294 294 295 295 293 292 291 293 294 294 291 290 290 291 292 293 292 290 290 290 290 290 290 290 290 290 290 290 289 289 289 289 289 290 290 289 288 286 286 286 286 285 285 284 283 282 281 280 280 280 280 280 279 279 279 278 278 277 277 277 276 276 275 275 274 274 274 274 274 274 273 273 273 273 273 274 275
289 289 290 292 293 293 293 294 293 293 294 295 295 292 291 292 294 294 292 289 288 290 291 290 291 290 289 289 289 289 289 289 289 289 289 289 289 289 289 289 289 289 289 288 287 285 283 284 284 283 283 282 281 281 280 279 279 278 279 279 278 278 278 278 277 276 276 276 275 275 274 274 273 273 273 273 273 272 272 271 271 271 271 272 273 274
290 290 290 291 292 292 292 293 293 292 293 293 292 291 291 293 293 292 290 289 290 290 290 289 289 288 288 288 288 288 288 288 289 289 289 288 288 288 288 288 288 288 287 285 284 282 281 281 281 281 280 280 279 279 278 277 277 277 277 277 277 277 277 276 275 275 274 274 274 273 273 273 272 272 272 271 271 271 270 270 270 270 271 271 272 273
291 290 290 290 291 291 291 292 292 292 291 290 290 291 291 292 292 291 290 290 290 290 289 289 289 288 288 288 288 288 288 288 288 288 287 287 287 287 287 287 285 284 283 282 281 280 279 278 279 278 278 278 277 277 276 276 276 275 275 276 276 275 275 274 273 273 273 273 272 272 272 272 271 271 270 270 270 269 269 269 269 270 270 271 272 273
291 291 291 290 291 291 290 291 291 291 290 290 290 290 290 290 291 291 290 289 289 289 289 289 289 288 288 287 287 287 287 287 287 287 286 286 286 285 284 283 282 281 280 280 279 278 277 277 276 276 276 275 275 275 275 274 274 274 274 274 274 273 273 272 272 271 271 271 271 271 271 270 270 270 269 269 269 268 268 269 269 269 269 270 271 272
291 291 290 290 290 290 290 290 290 290 290 290 290 290 290 290 290 290 290 290 290 290 289 288 287 287 287 286 285 285 286 286 285 285 285 284 283 282 281 280 280 279 278 278 277 276 275 274 274 274 273 273 273 273 273 272 272 272 272 272 272 271 271 270 270 269 269 269 269 269 269 269 269 268 268 268 268 268 268 268 268 268 269 270 271 272
289 289 289 289 290 290 289 290 290 290 290 290 290 290 290 290 290 289 289 289 289 288 287 286 285 284 284 284 284 284 284 284 283 282 282 281 280 279 279 279 278 277 276 275 275 273 273 272 272 272 272 271 271 271 271 270 270 270 269 269 269 268 268 267 267 267 267 267 267 267 267 267 267 267 267 267 267 267 267 267 268 268 269 269 270 271
290 289 289 289 289 289 289 289 289 290 290 290 290 290 290 289 289 289 289 288 286 284 282 282 282 282 282 282 281 281 281 280 279 279 279 278 278 277 277 277 276 275 274 273 272 271 271 270 270 270 270 269 269 269 268 268 267 267 266 265 265 265 265 264 264 265 265 265 265 265 266 266 266 266 266 266 266 266 266 266 267 267 268 268 269 270
290 289 288 288 289 289 289 289 289 289 290 290 289 289 289 289 289 288 287 285 283 282 280 279 279 280 280 279 278 278 278 277 277 276 276 276 275 275 275 274 273 272 272 271 270 270 269 269 268 268 267 267 266 266 265 265 264 263 263 263 262 262 262 262 263 263 263 263 264 264 264 264 265 265 265 265 265 265 265 265 266 266 266 267 268 268
289 289 289 288 289 289 289 289 289 289 289 289 289 289 288 287 286 285 284 282 281 279 278 277 277 277 277 277 276 275 275 275 275 274 274 273 273 273 272 272 271 270 270 269 268 267 267 266 265 265 264 264 264 263 263 262 262 261 261 261 261 261 261 261 261 261 262 262 262 263 263 263 263 263 263 264 264 264 264 264 265 266 266 266 267 268
290 290 289 289 289 290 290 290 290 289 289 289 289 287 284 281 282 283 282 279 278 276 275 275 276 276 275 274 274 273 273 273 272 272 271 271 271 271 270 269 269 268 267 267 266 265 264 264 263 263 262 262 262 262 261 261 261 260 260 260 260 260 260 261 261 261 261 261 261 262 262 262 262 262 262 263 263 263 263 263 264 265 266 267 267 268
Wind_Speed
2 5 6 7 9 11 12 13 16 11 6 5 6 8 10 11 12 13 15 11 2 6 11 13 19 19 17 17 15 16 17 18 21 19 15 14 15 14 11 5 5 6 5 6 11 12 14 15 15 16 16 16 16 16 16 16 18 21 22 25 27 28 30 29 27 28 28 26 24 24 26 29 31 35 39 40 42 43 44 46 48 48 49 48 49 49
2 7 7 11 14 9 5 6 9 9 8 10 9 10 10 10 13 13 14 13 2 3 8 9 17 19 17 19 18 18 18 18 19 16 16 18 17 10 4 6 7 5 5 6 7 9 13 16 18 22 23 20 15 13 13 13 14 16 17 19 22 24 27 29 28 28 28 27 27 27 27 27 24 29 36 36 38 42 43 44 46 47 47 48 48 48
4 8 10 15 12 1 1 1 3 8 10 11 8 8 9 8 12 11 10 10 2 2 8 11 15 16 17 22 21 17 15 15 16 15 17 17 12 7 7 6 4 4 4 3 6 9 13 17 21 24 24 23 20 16 14 12 11 11 13 15 17 19 24 28 29 30 30 27 28 26 24 23 20 23 30 32 33 38 41 42 43 45 45 46 47 47
5 5 9 14 8 3 6 4 4 7 8 9 8 7 9 8 9 8 5 1 1 4 10 13 14 13 15 16 12 10 10 10 14 16 14 7 5 7 5 2 2 2 2 5 8 10 14 17 20 23 22 24 23 18 17 17 13 9 10 12 14 17 21 24 27 31 30 26 27 27 25 23 20 19 23 28 31 33 36 38 40 42 44 45 46 47
8 1 1 4 4 8 11 6 6 8 8 9 9 8 11 12 11 11 7 5 7 8 5 10 12 7 4 2 1 2 4 5 12 12 3 6 7 4 2 1 2 3 3 6 10 11 12 14 18 20 21 23 21 18 21 22 16 11 9 9 11 13 17 21 24 28 28 26 25 25 24 22 19 19 19 22 25 24 27 32 34 38 41 43 45 47
9 0 3 2 3 5 8 7 9 9 8 8 7 11 16 15 14 15 11 8 8 5 1 7 9 3 1 1 4 6 3 7 12 5 7 9 7 5 5 5 4 3 4 8 11 12 12 14 16 19 22 23 21 23 28 26 21 16 11 8 8 9 12 17 21 24 25 24 21 19 20 18 17 18 18 19 19 19 24 28 30 35 39 42 44 46
4 1 2 3 3 4 5 8 9 8 8 8 3 6 12 13 13 12 9 6 5 4 1 3 5 6 4 4 6 6 5 11 13 2 8 7 5 5 5 6 5 5 8 10 12 13 14 15 17 20 24 22 21 27 32 30 27 22 16 12 7 6 7 11 16 20 22 21 19 19 20 18 17 17 16 17 18 18 23 26 29 33 36 39 42 43
3 2 2 2 4 5 6 7 6 9 7 5 2 2 4 7 8 5 5 5 5 6 3 3 4 8 7 4 3 4 8 13 12 3 9 8 7 6 5 6 7 9 11 10 11 13 13 14 16 17 18 18 22 32 37 33 30 27 22 17 10 6 5 9 12 15 19 18 17 19 19 17 17 16 12 13 16 17 19 23 27 29 31 36 39 40
3 4 5 6 5 5 7 4 5 10 7 2 3 2 1 1 3 2 4 5 4 6 4 4 5 6 8 2 3 3 8 9 6 7 11 9 8 5 5 8 11 12 12 11 11 11 11 13 14 12 13 19 27 34 37 34 32 29 26 22 16 10 6 7 10 12 16 17 15 15 17 16 15 15 12 11 13 14 17 21 24 25 27 32 36 39
1 2 3 5 5 6 5 1 4 10 6 1 4 3 4 2 2 1 3 4 3 6 6 6 8 7 9 2 4 2 3 3 4 9 11 8 5 4 6 10 12 12 11 10 9 9 11 13 13 14 20 28 29 29 34 37 35 32 29 26 21 15 10 8 8 9 13 16 16 13 14 15 14 13 12 11 11 11 14 17 19 21 24 28 33 37
1 2 2 3 5 3 3 3 1 3 2 2 4 1 1 2 2 0 2 2 4 9 6 9 13 9 6 1 2 1 0 0 2 6 8 7 5 5 8 11 12 11 9 7 7 10 12 14 17 21 26 29 29 28 33 38 38 36 32 28 23 20 15 11 8 7 9 12 14 13 12 14 14 12 11 11 11 11 12 14 16 18 21 24 28 33
2 2 2 2 2 1 4 3 2 2 1 1 2 1 2 2 0 1 1 1 5 7 2 2 5 8 8 2 1 1 2 2 2 2 4 8 8 8 10 11 10 9 8 8 9 11 13 15 19 25 27 27 29 30 31 33 36 37 36 31 26 24 21 15 11 8 8 9 11 12 12 13 13 13 13 13 13 11 12 13 13 14 17 20 23 28
3 5 3 1 1 3 4 2 2 2 1 3 3 1 2 2 1 2 1 2 6 5 2 3 2 6 10 5 5 10 9 2 2 4 7 10 9 8 10 10 9 8 9 11 11 11 12 13 16 21 24 24 26 28 28 29 31 32 34 33 28 27 26 20 15 11 9 10 11 11 12 12 11 12 13 14 14 12 12 13 13 14 16 17 21 26
3 2 4 2 2 5 9 6 3 3 4 6 5 4 3 1 1 3 3 3 5 2 2 2 1 5 8 6 8 12 10 4 7 7 8 9 9 9 10 10 10 10 11 11 10 11 11 12 15 19 20 20 21 23 24 26 27 27 28 30 28 28 29 26 21 18 14 11 12 13 13 13 12 12 13 14 14 13 12 13 14 16 17 18 22 28
5 5 4 6 2 7 12 8 2 3 4 6 4 3 4 4 3 4 4 4 5 3 1 1 2 4 4 0 3 5 6 4 8 8 9 10 10 9 10 10 11 11 10 9 9 10 12 14 17 18 17 17 18 19 21 22 24 24 23 25 27 28 30 31 27 23 19 15 13 13 13 14 14 14 14 14 14 13 13 14 16 17 18 19 23 27
5 7 3 3 1 7 11 5 3 4 2 2 2 2 4 5 5 4 4 3 2 4 3 3 3 5 5 5 5 7 2 9 13 11 12 12 10 9 9 10 9 9 8 8 9 11 13 15 16 16 17 17 17 18 19 20 21 21 22 23 25 26 27 30 29 25 22 19 16 15 14 13 15 16 17 17 16 16 17 18 19 19 19 21 23 26
4 5 3 4 2 5 5 1 2 2 1 3 3 4 2 0 3 4 4 1 1 5 5 4 6 7 7 9 5 2 8 14 13 11 12 10 9 9 9 8 8 8 8 9 10 10 12 14 15 16 16 15 16 16 17 18 18 18 20 21 23 24 25 27 28 28 27 25 21 19 17 15 15 15 17 17 19 21 22 22 22 22 22 23 25 26
5 6 2 5 5 3 1 1 1 2 1 4 3 3 1 2 1 3 3 1 3 7 5 5 10 10 7 6 3 11 12 11 10 10 9 8 8 9 8 7 7 7 8 8 9 9 10 12 13 14 14 15 16 17 18 18 16 16 17 18 19 20 21 24 28 30 31 31 28 25 21 18 16 15 16 17 18 20 22 23 24 23 24 25 26 27
2 6 4 4 5 1 3 2 2 1 1 1 1 1 1 2 3 3 3 3 6 8 5 7 12 10 7 8 4 5 7 8 9 9 7 7 8 7 7 7 7 7 6 7 8 7 8 9 11 12 13 16 17 18 19 19 19 19 20 20 20 20 20 24 30 32 32 32 30 28 26 23 19 16 15 16 17 18 20 22 23 24 26 26 27 27
1 5 4 1 0 2 3 3 4 4 1 1 2 2 1 2 4 3 2 2 5 9 8 8 10 8 8 9 8 2 5 6 7 7 7 7 6 5 5 5 5 6 6 6 6 6 6 8 10 11 12 13 15 16 16 17 20 22 24 26 28 27 26 27 29 29 30 31 31 29 29 28 25 21 17 15 15 15 17 19 21 23 26 26 26 27
1 4 5 1 0 2 4 5 6 6 5 4 4 4 3 2 1 3 3 3 5 8 8 9 9 6 4 4 1 5 6 5 6 7 6 6 6 5 5 4 4 4 4 3 3 3 4 6 7 8 9 10 11 12 13 14 16 19 22 26 28 29 30 30 28 26 26 26 28 29 28 28 28 25 22 19 15 13 14 16 19 22 24 25 26 26
2 3 5 4 4 6 7 3 4 6 4 4 6 7 7 6 3 5 7 6 6 6 5 7 8 5 1 3 6 8 6 6 7 8 7 6 5 4 4 3 3 2 2 2 2 2 3 3 4 5 6 7 8 10 11 12 13 16 18 20 20 22 25 27 29 28 25 22 23 27 27 27 28 28 27 24 21 17 15 15 16 19 21 22 24 25
1 1 5 8 7 11 12 2 3 2 2 2 5 5 4 5 6 8 8 5 6 5 4 7 9 4 3 6 8 7 7 7 7 7 8 6 5 5 3 2 2 1 1 1 1 1 2 2 2 3 4 5 7 8 10 11 12 13 14 15 15 17 19 22 24 26 25 23 24 26 27 29 30 29 29 28 26 24 22 19 17 17 18 19 21 23
1 1 4 7 7 9 12 6 3 2 1 4 6 3 3 5 6 6 5 3 3 5 5 8 8 3 2 4 7 8 8 8 6 6 8 7 5 5 4 3 2 1 1 1 1 1 1 1 1 2 3 4 5 7 9 10 11 13 14 15 16 17 18 19 20 21 22 23 25 27 28 30 31 31 31 29 28 28 26 23 20 17 16 17 18 19
2 2 3 5 6 6 9 8 3 2 1 2 4 3 4 6 7 8 6 3 4 8 11 10 8 4 1 3 6 8 8 8 6 5 5 6 5 4 4 3 2 1 0 1 2 2 2 2 3 4 5 6 7 8 9 9 10 11 12 14 16 17 18 19 19 19 19 20 22 25 27 27 28 29 30 30 30 29 28 27 24 20 17 15 15 17
2 2 2 5 7 6 7 7 2 1 2 3 3 4 6 6 6 7 6 7 7 7 10 10 8 5 2 3 3 3 5 6 6 6 4 4 4 3 2 1 1 1 2 3 4 5 5 5 6 8 8 8 9 10 10 11 11 11 12 13 15 16 17 20 21 21 20 19 18 19 23 25 27 28 29 30 30 29 28 28 27 25 22 17 15 15
2 2 4 7 9 8 9 8 4 3 4 6 6 6 8 7 7 7 6 7 7 6 7 8 8 9 7 5 7 6 4 2 4 6 5 4 3 2 1 1 1 1 2 3 4 5 6 7 8 10 11 11 11 11 10 10 11 11 12 14 16 18 18 19 19 18 17 16 15 16 19 23 26 28 29 30 30 30 29 30 29 28 26 24 21 18
2 4 7 10 11 11 12 12 9 7 7 9 10 10 10 11 11 10 10 10 9 8 8 8 10 11 10 9 11 10 8 4 2 4 4 4 3 2 1 1 1 1 2 1 2 3 4 5 6 8 10 11 12 13 12 12 12 12 12 12 14 16 16 17 17 16 16 15 14 15 16 18 23 26 28 29 29 30 30 30 30 29 28 27 26 23
3 8 9 9 11 12 13 12 10 7 7 9 11 12 12 13 14 15 15 14 13 12 11 13 16 16 13 15 16 10 3 1 4 4 3 3 2 2 2 2 2 2 2 2 2 2 3 4 4 5 7 8 10 11 12 12 12 13 14 14 15 15 15 14 13 13 13 14 14 15 15 16 19 23 26 27 28 29 29 29 30 30 29 29 28 26
2 6 5 4 8 10 10 11 9 8 8 9 11 12 14 16 17 17 17 17 17 17 17 19 22 22 17 15 11 3 5 4 4 3 2 2 3 4 4 4 4 4 4 4 4 4 4 4 4 5 6 7 7 8 9 10 10 11 12 13 15 17 18 17 15 13 12 11 11 12 14 15 17 21 25 26 27 28 28 28 29 30 30 30 29 28
3 4 2 3 6 8 9 11 11 9 9 10 11 12 16 19 18 17 17 16 16 17 18 20 21 18 10 3 3 5 5 4 3 1 2 3 4 5 6 7 6 6 6 6 6 6 5 6 6 6 6 7 8 8 8 9 10 11 11 12 14 16 18 18 17 16 16 15 14 13 12 12 13 16 20 23 25 27 27 27 28 28 29 30 30 30
3 4 3 4 6 7 7 11 13 10 9 12 13 15 19 19 16 15 15 14 14 16 17 18 16 10 2 4 5 5 4 2 1 2 3 3 5 6 7 8 8 8 7 7 6 6 6 7 7 7 8 9 8 8 8 8 8 10 11 13 16 18 20 20 18 18 19 19 18 17 17 16 16 16 17 19 22 24 24 25 26 27 29 30 31 31
3 4 4 5 6 6 8 11 9 6 7 11 11 13 18 18 17 17 16 15 17 16 13 12 8 2 2 3 3 3 2 1 3 3 3 4 5 7 8 10 10 9 9 8 8 8 8 8 8 9 10 10 10 9 9 8 8 9 9 11 14 17 19 19 18 18 19 20 18 17 17 18 20 21 20 21 23 24 22 22 23 24 27 30 31 31
5 6 7 7 6 7 9 6 4 5 10 8 3 5 10 11 11 14 14 15 15 9 3 2 1 2 4 4 3 2 0 3 4 4 4 5 5 6 8 10 10 10 10 9 9 9 8 8 10 11 11 12 12 11 10 9 10 10 10 12 14 15 16 17 16 17 18 19 16 15 16 16 17 19 21 23 25 24 21 21 22 23 25 26 28 30
7 7 7 7 8 8 6 3 5 10 9 3 3 2 3 3 5 9 14 16 12 4 1 2 3 5 5 3 2 1 3 4 4 5 6 6 5 6 8 10 10 11 10 10 9 9 9 10 11 11 12 12 12 12 12 12 12 12 13 14 16 17 18 18 17 17 17 17 17 16 16 16 16 18 21 25 26 23 20 20 20 22 23 22 24 27
9 7 6 6 7 5 3 6 10 6 4 6 10 5 2 2 6 8 11 11 6 3 4 6 5 5 4 2 2 4 4 4 4 6 8 9 8 8 9 11 11 10 10 10 9 9 9 10 11 12 13 12 12 12 12 13 14 15 17 18 18 20 20 18 17 16 15 16 16 16 15 15 18 21 25 27 27 25 21 19 19 21 21 21 22 23
10 8 5 5 6 4 5 9 9 7 8 9 10 4 1 2 4 4 5 4 2 3 4 4 5 4 3 3 4 3 1 2 4 7 9 9 7 7 10 12 12 12 11 11 12 12 13 14 14 15 16 15 14 14 13 14 15 16 18 21 21 21 22 20 18 17 16 16 16 16 16 17 21 26 28 29 28 26 21 19 21 22 21 21 22 22
11 10 7 6 6 5 6 7 6 8 7 4 3 2 2 2 1 1 3 3 2 3 2 3 4 3 3 5 5 1 2 2 6 7 8 6 5 6 8 11 13 14 14 14 14 14 15 17 17 18 18 17 17 17 15 16 16 16 19 21 20 21 22 21 19 19 20 20 19 20 21 22 25 27 29 30 30 25 22 23 25 25 22 20 22 24
6 9 8 7 7 6 8 8 7 8 5 1 2 3 2 2 2 1 5 5 1 2 3 3 3 4 4 6 6 2 1 5 7 7 10 10 6 4 7 9 12 15 16 18 19 20 19 18 18 18 18 18 18 18 16 16 16 17 19 20 19 19 20 20 20 21 21 21 21 22 26 27 28 28 30 33 31 25 24 28 29 27 25 23 22 25
2 4 6 7 7 8 9 8 7 7 4 2 5 5 2 2 2 3 8 5 2 4 5 4 4 6 6 6 6 4 5 7 8 9 12 12 8 6 8 11 13 16 17 19 21 20 18 16 16 16 17 16 16 17 19 20 20 20 21 21 20 21 22 22 23 22 21 21 21 23 27 29 29 31 32 33 31 27 28 31 31 28 28 27 26 25
1 1 4 7 8 10 10 8 7 7 5 6 10 7 2 3 2 6 8 2 3 6 6 5 6 7 6 7 6 5 7 9 11 12 12 10 8 8 11 13 16 19 20 19 17 14 13 13 14 14 16 17 18 22 24 24 23 23 23 21 22 26 27 27 25 23 22 23 24 27 30 32 32 33 33 31 29 29 33 36 33 31 31 30 28 26
1 1 3 6 6 7 8 8 8 7 4 5 5 2 3 3 5 6 3 1 3 6 5 6 7 8 8 9 8 7 10 11 13 12 10 10 10 11 13 15 15 17 17 15 12 12 11 12 14 16 18 19 20 24 26 24 24 26 24 22 26 30 30 28 27 26 26 28 29 32 33 33 33 33 33 32 30 30 35 38 35 32 31 29 27 28
3 2 4 5 4 4 6 6 7 6 2 3 2 2 3 5 4 3 2 3 4 5 5 6 8 8 8 9 9 10 11 12 12 11 10 11 12 12 13 13 12 12 12 11 10 10 11 14 16 18 20 20 20 22 24 23 24 26 24 25 29 29 28 29 30 29 31 33 33 34 35 34 34 34 33 33 32 32 35 37 34 31 29 27 26 27
3 4 6 4 3 4 6 6 5 3 1 3 3 2 4 6 4 4 7 8 6 5 6 5 6 7 7 7 9 10 10 11 11 11 11 11 12 11 10 10 10 10 11 11 11 12 14 15 17 20 23 24 21 20 21 22 23 25 26 27 28 26 27 30 31 30 33 35 35 36 37 35 36 35 34 34 32 30 31 33 30 28 27 25 25 25
6 8 8 6 4 5 7 6 2 1 3 5 5 5 8 10 9 7 7 7 6 6 6 5 6 8 6 6 8 8 9 10 10 10 11 10 10 9 8 9 10 10 11 12 13 13 14 16 18 21 25 28 25 20 20 21 22 24 26 27 26 26 28 31 31 31 34 36 36 38 38 37 37 37 36 35 32 28 29 29 28 27 26 24 24 24
6 6 3 4 5 6 8 8 6 6 10 10 8 8 8 9 9 8 7 7 7 6 5 4 6 7 6 5 5 6 8 8 8 9 9 8 9 8 8 9 11 11 12 13 14 15 16 17 19 20 23 29 29 24 22 23 22 23 26 27 26 26 28 30 32 33 34 35 36 38 38 37 37 36 34 32 30 28 29 29 28 28 26 23 23 24
8 7 4 5 8 7 8 10 9 10 13 13 10 10 9 8 8 7 7 7 6 4 3 2 2 4 4 3 3 6 7 6 6 8 8 7 7 8 8 9 11 12 12 13 15 17 18 18 19 20 23 28 29 26 24 25 24 24 26 27 28 29 32 33 33 33 33 34 35 36 35 34 34 34 32 30 28 29 29 28 27 27 26 24 23 24
6 5 6 9 11 10 11 14 13 13 14 13 10 10 10 10 11 8 5 3 2 2 2 2 1 1 1 2 2 4 5 5 5 7 8 7 7 7 7 10 12 13 14 14 15 17 18 18 19 21 23 25 27 27 27 27 27 27 29 29 30 32 35 36 34 33 34 34 34 35 34 32 32 33 32 30 29 29 29 28 26 26 27 27 25 24
3 3 5 6 9 11 13 15 15 14 15 14 13 12 11 10 9 6 2 1 2 2 3 2 1 1 1 1 2 3 5 5 5 7 8 7 7 7 9 11 13 14 15 16 16 16 17 18 20 22 24 26 27 27 28 29 28 29 30 31 31 32 33 34 33 33 34 34 33 33 31 30 30 29 29 29 29 29 29 29 28 28 31 32 31 30
5 7 5 4 7 10 11 13 12 10 11 13 11 9 6 3 3 2 2 2 1 1 1 1 1 1 2 1 2 3 5 5 5 7 8 7 7 9 11 13 15 15 15 16 17 18 18 18 20 23 26 27 26 26 28 28 29 31 32 32 31 30 30 31 33 33 32 31 30 29 28 27 27 27 27 28 28 28 30 31 30 31 34 36 36 35
9 12 9 7 10 12 12 13 10 7 10 13 8 2 3 1 1 2 2 2 2 2 1 2 2 1 0 1 2 3 4 5 6 7 7 7 8 11 12 13 14 16 17 17 17 19 20 20 21 22 25 27 27 27 28 31 34 36 36 35 33 31 30 30 31 32 31 29 29 29 29 28 28 28 28 28 28 28 29 30 30 31 33 36 38 39
Wind_Direction
187 196 191 212 228 233 222 216 233 254 300 301 278 270 269 277 276 272 276 278 271 279 271 265 276 286 288 283 278 273 270 269 268 270 277 280 274 272 280 312 20 17 342 292 286 304 323 327 331 337 342 334 316 298 282 266 255 249 241 237 236 233 227 222 217 215 213 209 208 211 215 219 221 222 225 226 226 226 226 226 225 225 224 223 223 223
206 220 210 225 238 249 244 232 248 264 278 268 263 274 271 268 273 270 275 282 283 276 272 263 276 286 289 285 276 268 266 266 270 276 277 271 269 279 347 38 34 360 302 282 313 347 348 348 360 5 5 359 344 328 309 287 271 259 246 238 235 233 228 223 220 217 216 213 211 213 215 217 216 220 222 223 225 226 226 226 226 225 224 224 223 223
212 228 225 232 238 272 356 235 248 252 256 262 258 268 270 269 279 273 260 273 298 273 285 293 290 289 282 274 273 272 264 261 264 261 259 264 278 321 17 27 360 318 297 340 17 17 6 2 7 9 8 4 1 360 351 331 306 280 256 245 237 233 231 228 224 222 220 218 217 218 218 217 215 221 225 224 226 227 227 227 227 225 225 224 224 224
228 230 231 239 236 221 244 222 224 257 253 247 247 261 272 268 274 272 243 256 2 266 286 303 294 283 272 260 266 271 251 255 262 252 253 276 342 350 352 335 316 331 347 32 40 29 17 9 10 12 7 2 3 9 11 3 343 314 280 259 245 237 235 232 228 227 224 221 221 220 221 222 219 224 229 228 230 231 229 228 228 227 226 225 225 225
249 247 160 242 215 221 240 229 222 252 256 242 235 245 263 264 261 266 279 330 308 270 284 314 296 283 277 228 120 262 230 268 267 252 252 60 58 47 72 88 44 40 29 36 35 28 19 12 14 15 6 2 1 2 10 12 4 344 317 285 261 246 240 235 233 232 226 223 222 218 220 223 223 227 228 227 229 229 228 228 229 229 227 226 226 226
260 47 108 192 184 205 227 234 225 230 260 261 228 227 250 266 272 274 292 323 306 271 64 345 317 302 88 38 335 323 314 279 261 237 86 77 72 77 86 67 54 58 50 38 31 26 19 11 12 15 12 6 1 4 11 15 13 6 351 325 289 262 246 239 236 234 227 222 220 212 210 212 213 220 220 219 220 218 222 225 228 231 230 228 228 227
260 75 109 209 192 175 205 245 230 206 252 272 238 232 248 264 273 278 297 306 292 292 37 17 306 283 274 256 282 300 273 260 261 255 85 86 72 71 78 68 64 55 46 38 31 28 21 12 10 13 13 6 0 11 18 17 15 14 11 0 330 289 262 249 241 233 225 218 215 213 212 212 212 216 217 215 214 216 219 221 225 229 230 229 228 228
196 131 89 167 186 185 211 247 215 183 230 268 17 340 263 267 275 278 293 270 277 314 296 183 226 273 285 250 226 244 240 255 274 357 74 87 87 74 65 66 58 45 39 32 29 27 21 19 17 12 8 7 13 22 25 22 17 16 15 15 2 329 290 266 252 235 226 219 215 215 217 220 223 224 225 217 214 217 218 219 223 226 227 228 228 227
154 177 176 166 176 206 215 225 165 176 218 276 64 32 62 318 305 288 280 269 287 314 285 178 173 263 281 234 165 235 246 265 313 40 65 77 90 83 70 69 56 45 39 31 29 27 24 28 23 12 14 22 26 27 28 27 24 21 18 20 16 360 338 292 270 245 233 228 222 221 221 226 232 233 237 232 224 221 221 221 222 222 224 227 227 227
130 198 210 177 195 228 214 157 158 182 205 151 132 110 94 102 55 61 282 294 296 285 265 175 170 255 288 228 153 216 265 297 36 71 79 81 77 71 67 62 52 46 42 34 32 33 35 35 25 19 26 30 28 25 28 32 32 28 22 23 23 12 360 330 295 263 246 237 232 231 229 232 236 235 238 240 234 227 224 222 218 218 221 225 226 226
109 55 322 214 228 250 113 72 5 189 153 124 156 132 118 159 96 131 267 330 285 271 248 180 183 223 278 303 157 190 318 221 91 85 101 104 73 56 56 48 44 46 45 37 33 32 30 29 27 29 30 29 26 24 28 32 34 33 28 26 26 21 11 353 328 292 266 251 243 240 238 239 240 240 242 242 239 232 224 222 217 216 218 221 225 225
162 179 235 235 246 68 111 104 25 34 46 170 191 303 278 234 96 224 186 122 254 266 280 158 192 221 238 253 62 333 310 230 201 351 81 99 78 58 54 48 47 47 43 38 31 26 23 21 25 31 31 27 24 25 26 28 32 34 33 30 27 25 20 8 348 319 290 276 263 257 256 254 251 251 251 248 244 237 228 226 222 217 217 218 221 223
195 199 203 295 260 186 183 176 97 87 177 205 203 204 283 311 343 259 233 208 244 263 3 7 332 240 242 254 268 277 293 306 98 18 47 80 77 65 61 58 57 45 38 38 29 24 25 23 25 30 30 27 25 24 24 26 29 32 33 32 29 26 24 19 9 353 324 298 284 275 271 270 266 263 260 254 250 243 234 231 226 221 220 218 219 223
260 212 148 183 243 187 188 199 201 191 177 185 189 170 177 210 244 253 248 252 260 264 58 13 266 254 267 262 244 261 290 2 62 55 63 77 76 72 67 62 57 45 39 36 29 28 28 28 31 32 30 29 26 24 24 26 28 30 32 32 31 29 28 27 23 16 1 332 305 288 278 277 278 276 271 265 258 252 243 235 231 229 228 226 228 232
266 283 175 177 176 159 187 212 199 121 163 186 182 167 198 204 217 248 237 240 268 272 126 115 209 257 284 318 184 257 298 31 66 71 81 80 73 72 65 56 51 45 40 35 32 32 31 29 30 30 29 27 25 23 24 26 27 28 29 31 32 31 30 31 30 25 17 0 335 313 297 287 283 281 280 276 269 262 253 245 241 239 237 237 239 242
244 268 177 138 53 166 185 206 111 113 171 188 126 173 230 216 202 236 250 233 304 307 253 201 239 263 279 297 280 270 284 93 90 80 80 77 71 68 59 51 45 41 37 33 32 33 31 30 29 28 27 24 22 24 26 25 25 26 27 30 32 32 31 33 33 30 25 15 1 349 337 317 299 289 284 280 276 272 266 260 255 251 247 247 247 248
247 264 116 88 281 202 184 162 153 196 197 141 166 202 222 201 187 236 268 158 91 279 252 226 264 273 281 290 284 137 101 98 95 83 81 80 71 66 58 48 42 39 36 33 34 33 28 27 27 27 25 22 21 24 27 27 26 26 28 30 32 32 31 32 34 34 31 26 18 10 2 347 327 309 296 289 283 279 275 270 265 261 258 255 254 252
253 270 201 159 213 227 10 340 256 309 114 142 191 213 115 29 224 230 257 170 191 245 239 219 251 270 286 288 120 114 110 104 97 89 86 82 74 71 62 51 42 39 39 38 37 34 30 27 24 23 22 22 23 24 25 24 25 27 30 33 34 33 29 29 33 36 34 31 27 22 17 6 350 332 316 305 297 290 284 278 273 269 266 264 261 258
263 270 255 189 207 141 66 252 227 222 206 133 266 295 80 246 236 200 212 233 233 244 240 213 233 253 254 246 227 147 132 115 101 92 77 62 62 64 62 55 45 42 41 41 39 35 33 29 25 23 21 22 24 23 22 21 22 25 27 30 33 35 32 31 34 36 36 35 31 28 26 21 12 358 338 322 313 303 293 286 281 277 274 272 269 265
60 257 266 73 125 102 117 213 210 186 162 41 288 282 291 257 255 225 200 225 237 249 255 233 230 235 229 245 263 232 121 107 102 97 82 70 67 65 67 59 46 46 44 41 41 37 35 33 30 28 24 22 23 22 21 21 22 24 26 28 30 31 31 31 32 34 34 34 32 31 31 29 26 19 5 348 332 317 304 295 289 285 282 278 274 270
12 258 263 321 40 185 192 205 205 203 193 190 221 228 218 216 282 280 251 214 237 253 255 249 243 232 237 272 229 114 92 82 95 100 95 85 77 71 70 70 64 62 57 52 51 43 40 36 33 30 26 24 22 21 22 22 23 24 25 28 29 28 29 29 29 29 30 31 30 30 31 30 29 27 22 14 359 339 322 309 301 297 294 288 281 276
267 260 253 256 245 243 245 205 191 233 224 204 220 218 215 207 200 250 243 210 224 244 237 250 252 226 224 44 101 107 88 85 96 101 102 97 92 88 76 72 76 75 70 68 59 50 47 42 40 38 32 29 25 22 21 21 24 24 23 24 24 25 26 28 28 27 26 24 24 27 29 29 28 28 26 23 17 6 354 339 324 313 306 297 290 285
301 258 248 253 244 254 269 276 120 229 275 269 248 229 228 221 204 231 246 227 229 238 228 254 256 234 80 76 98 105 108 111 112 118 122 124 127 122 117 113 100 80 66 52 39 42 36 31 39 40 35 33 31 28 25 25 25 23 21 18 17 19 21 22 25 26 25 23 21 21 22 23 24 24 24 24 20 16 11 1 347 332 318 306 297 290
357 259 256 260 252 262 269 254 137 122 209 258 256 239 241 247 241 254 272 291 268 244 241 252 248 235 63 89 112 115 120 121 122 132 133 135 140 139 143 143 131 119 56 11 360 355 337 348 17 31 34 31 29 29 29 28 25 21 20 18 16 17 16 16 18 20 22 23 22 21 19 18 18 18 18 19 18 18 16 10 359 343 327 314 305 296
297 282 297 286 274 268 263 252 217 100 75 281 281 293 284 276 280 278 267 266 253 230 234 250 254 243 184 121 122 123 127 125 121 128 132 133 137 141 144 143 152 175 190 324 324 323 323 346 6 14 18 18 20 22 22 21 20 19 18 17 15 14 13 13 14 13 14 17 18 19 18 15 14 13 12 12 12 13 14 12 8 357 341 325 310 301
273 273 286 284 277 271 276 275 258 92 11 315 291 302 316 316 303 291 273 258 250 228 228 247 264 263 202 137 143 143 133 133 138 139 128 119 121 121 118 102 79 55 16 358 352 350 349 354 1 5 7 9 12 13 11 11 11 10 9 11 12 12 11 12 12 11 10 10 10 11 11 12 11 9 8 7 7 7 7 8 9 6 359 347 330 315
228 230 224 246 263 270 279 282 275 278 283 278 276 280 289 290 287 290 280 263 275 288 265 262 282 288 281 275 273 275 279 240 154 142 133 125 127 125 109 50 31 9 351 353 350 346 349 351 354 356 356 359 2 2 3 4 3 2 360 0 4 5 5 6 5 4 2 1 360 2 4 6 7 7 5 4 4 3 3 3 3 3 2 358 351 339
219 254 243 245 257 263 272 278 280 279 269 270 279 276 270 271 270 265 258 261 285 295 276 275 283 280 278 280 278 279 282 276 140 131 140 141 145 155 172 222 232 256 274 295 311 321 334 337 340 344 346 349 350 350 353 354 354 356 354 353 357 360 359 357 356 355 355 355 356 357 356 357 1 3 3 2 1 359 358 358 358 358 359 358 355 349
229 264 261 264 274 272 277 284 284 279 274 273 274 271 269 269 264 259 259 266 275 272 270 283 284 277 276 276 276 283 306 91 112 122 137 142 174 212 238 257 269 293 293 289 299 300 298 302 312 324 329 333 335 338 342 343 344 345 345 346 349 351 352 351 349 348 348 350 350 349 349 349 353 357 358 358 357 355 354 354 354 354 355 354 353 350
230 262 265 288 293 284 284 290 290 286 283 277 271 270 272 268 264 266 271 270 266 263 267 275 274 271 273 275 279 329 76 98 105 115 156 205 229 233 242 258 266 279 285 282 287 287 281 283 291 299 304 311 316 322 326 328 331 332 332 336 341 345 347 346 343 340 339 339 338 338 340 341 345 350 353 353 351 350 350 350 350 350 350 350 348 347
280 276 308 357 306 285 284 289 289 289 284 278 273 269 266 265 266 269 271 269 265 263 264 265 265 266 272 302 64 85 91 100 111 146 228 240 246 249 255 259 259 263 267 264 266 272 272 274 279 280 285 291 296 302 306 310 318 321 321 325 331 336 340 341 338 336 335 334 331 329 330 330 334 340 344 346 346 345 344 344 345 345 345 344 343 341
297 290 325 331 290 272 277 285 286 292 288 274 264 258 256 257 258 257 257 256 259 263 264 263 264 267 294 76 92 104 95 88 180 248 260 256 251 250 255 261 260 260 270 276 276 278 281 283 284 282 283 283 283 283 285 289 299 306 310 317 323 328 332 334 332 330 331 331 330 329 330 329 329 331 334 337 338 338 337 337 339 340 340 339 338 337
246 266 283 282 276 270 272 279 293 313 291 266 250 246 249 250 252 254 253 251 253 257 263 267 271 281 92 101 112 118 109 295 279 275 267 263 260 248 247 257 262 264 274 283 285 283 283 283 282 280 280 281 281 281 279 275 278 281 286 297 308 316 323 325 323 321 323 324 323 323 325 327 328 329 330 331 333 333 330 329 330 331 332 332 333 333
228 248 262 262 265 270 275 293 326 277 261 263 272 261 259 263 264 262 262 260 257 256 268 292 295 119 129 128 120 116 249 281 290 291 276 266 265 259 255 257 258 260 264 270 274 275 274 274 275 274 274 277 281 284 283 275 272 276 281 290 300 307 311 314 313 313 315 316 315 314 317 320 322 324 325 328 330 328 322 320 321 322 323 325 326 327
239 242 253 258 261 268 279 298 273 255 251 284 339 291 255 283 277 267 269 269 266 264 137 184 172 158 156 141 123 198 260 267 277 287 282 272 266 266 268 264 258 253 254 257 261 261 261 264 269 271 272 274 278 281 281 279 279 281 284 288 294 300 304 306 305 306 307 308 308 308 312 315 316 318 322 325 328 324 314 311 314 316 318 317 315 317
239 244 249 250 251 261 253 230 243 269 325 306 286 265 169 222 247 255 269 268 255 226 217 208 174 156 166 191 232 243 254 269 280 275 267 264 265 263 262 264 262 255 251 255 261 263 266 268 270 274 276 275 274 272 271 275 280 283 286 289 292 295 298 298 296 296 296 297 300 302 305 310 312 314 317 321 325 321 311 307 309 312 314 310 306 306
232 242 248 247 241 241 242 236 250 299 317 291 281 271 172 240 247 251 281 278 176 172 213 192 164 166 195 248 255 241 235 299 290 274 260 248 244 254 261 263 264 261 254 254 258 263 269 273 275 278 280 280 276 270 269 274 279 281 284 287 290 293 294 292 289 290 291 291 294 296 297 302 306 309 312 316 318 315 307 303 306 308 309 306 301 298
229 234 232 242 245 237 250 254 258 277 279 274 288 271 223 264 267 215 290 295 139 165 207 156 161 205 258 281 270 211 121 276 279 287 289 269 231 237 262 266 265 264 259 256 258 262 266 269 272 277 281 281 279 277 277 280 282 282 283 285 288 291 291 289 288 291 293 293 293 293 294 298 301 304 307 310 311 308 300 298 301 304 304 302 297 295
220 231 225 238 251 241 247 253 248 256 263 201 238 242 193 200 187 193 291 302 98 203 231 167 186 233 247 263 264 218 213 274 278 293 306 304 291 268 276 279 274 266 259 256 256 258 262 266 271 278 281 279 280 285 291 294 293 291 287 288 290 288 286 286 288 291 292 291 290 290 291 293 295 298 301 303 304 300 294 295 298 300 300 299 295 292
157 219 215 225 240 238 242 249 249 257 277 289 265 258 195 154 164 264 283 286 171 221 232 195 226 255 251 257 259 225 234 270 288 297 302 305 309 308 295 290 286 280 271 263 260 264 273 280 282 284 283 282 289 299 305 307 306 300 294 294 293 288 286 288 291 292 291 289 288 287 289 290 291 292 295 297 297 294 291 294 296 297 298 298 294 290
134 214 221 222 232 237 240 248 256 259 261 259 260 255 162 132 218 262 274 271 164 223 225 198 228 257 260 261 261 246 252 269 281 288 295 298 300 299 291 285 284 282 278 274 280 298 309 303 297 296 295 298 305 309 310 312 309 301 297 296 292 288 290 294 295 294 291 289 288 288 289 291 291 292 292 291 290 289 290 292 294 295 296 297 294 290
180 160 232 227 228 237 241 250 262 268 251 226 240 231 132 204 253 261 260 148 199 231 222 205 226 246 255 259 260 264 272 278 279 282 286 286 286 289 288 286 287 288 289 294 311 333 332 315 309 307 303 306 309 310 311 311 304 299 297 293 289 290 295 298 298 297 294 292 290 289 289 290 290 290 289 289 288 288 289 291 292 292 293 292 289 287
213 213 246 228 206 231 248 245 252 270 266 179 180 114 163 220 266 314 302 263 242 245 244 229 228 237 247 256 264 270 276 280 278 277 276 277 282 287 291 299 308 313 319 329 341 348 337 321 312 307 306 307 307 308 311 309 301 298 295 290 291 296 301 301 300 299 296 293 291 290 289 288 288 287 286 287 288 288 288 289 290 289 288 286 283 283
214 224 252 240 184 215 247 242 229 246 228 169 179 228 239 248 282 303 288 286 285 278 272 260 250 249 249 259 273 278 280 278 275 278 281 284 291 297 306 324 337 334 332 335 336 335 330 319 311 307 307 307 306 308 312 309 303 298 294 292 298 304 305 304 303 299 294 292 290 289 288 288 287 287 286 286 288 287 285 285 285 284 282 280 277 276
206 213 238 250 227 229 255 261 240 230 241 218 214 246 260 268 272 267 264 272 275 275 280 285 286 285 283 281 279 276 275 275 279 286 292 294 300 311 325 334 331 326 326 327 327 328 326 319 312 309 307 306 308 311 313 311 307 300 297 300 306 308 306 305 303 297 293 291 289 288 289 289 288 287 286 286 285 281 279 279 280 278 276 274 271 268
231 226 235 260 254 254 264 261 247 254 265 263 254 252 257 266 273 273 268 265 266 275 287 291 291 296 301 299 283 273 276 285 291 294 297 300 306 318 329 325 321 323 325 325 327 328 327 321 314 311 308 307 310 314 314 314 312 306 305 309 312 311 310 308 303 298 293 291 290 289 289 288 288 287 287 285 281 275 272 272 272 272 271 268 265 263
243 232 222 244 254 260 263 257 246 248 261 265 266 268 266 260 258 259 263 270 278 296 314 318 301 297 307 313 288 279 285 300 305 299 299 305 308 317 324 318 318 324 325 325 327 328 327 323 317 315 312 309 311 317 317 315 315 312 312 314 313 312 311 308 304 299 294 291 291 291 289 288 287 287 287 284 280 276 273 270 268 268 266 264 262 262
234 208 210 234 244 245 253 260 260 258 261 262 264 268 269 263 259 256 257 279 317 47 66 54 32 319 321 324 302 293 297 305 307 301 301 308 313 318 321 317 318 322 323 323 325 327 327 324 317 315 312 309 312 316 316 314 314 314 313 312 310 308 306 302 299 295 291 290 290 288 286 286 285 286 285 282 280 276 273 270 267 264 262 260 260 261
215 179 183 213 239 246 252 259 263 265 267 263 254 249 253 261 266 266 267 46 48 81 94 81 71 85 46 338 330 318 306 304 309 307 306 310 316 317 319 319 319 320 320 322 324 326 326 322 318 315 311 308 310 312 311 311 311 312 311 309 306 305 302 298 296 294 290 289 289 286 285 284 283 282 282 281 279 275 271 268 265 262 263 263 259 256
214 226 207 198 243 254 251 248 247 254 267 269 260 241 234 252 265 238 173 123 88 58 52 31 50 122 116 33 356 324 303 304 317 314 307 310 316 316 318 320 318 317 321 323 322 321 320 318 315 312 307 305 308 309 307 306 305 306 306 304 302 302 299 296 297 295 292 291 290 289 288 288 285 283 282 280 280 279 276 273 266 261 262 264 262 258
216 233 228 222 242 252 252 246 237 229 254 269 273 180 126 88 228 194 171 136 118 87 35 344 326 294 181 346 349 333 313 311 318 317 310 307 311 311 312 316 318 318 320 322 321 319 318 316 314 309 305 304 306 304 302 301 302 303 303 303 302 300 296 293 294 294 293 293 291 290 290 289 286 284 282 279 278 278 279 279 276 268 263 264 265 265